Home   Weather   Mwanza   Past weeks

Flag for Tanzania Past Weather in Mwanza, Tanzania — Yesterday and Last 2 Weeks

Now
84 °F

Passing clouds.


Feels Like: 86 °F
Forecast: 66 / 80 °F
Wind: 15 mph from Northwest

Location: Mwanza Airport

Current Time: Sep 30, 2016 at 2:54:29 PM

Latest Report: Sep 30, 2016 at 2:00 PM


Visibility: N/A

Pressure: 29.98 "Hg (26.34 "Hg at 1146m altitude)

Humidity: 51%

Dew Point: 64 °F

Location of MwanzaLocation

Past Weather in Mwanza — Graph

°F

Mwanza Temperature Yesterday

Maximum temperature yesterday: 82 °F (at 1:00 PM)
Minimum temperature yesterday: 68 °F (at 5:00 AM)
Average temperature yesterday: 76 °F

High & Low Weather Summary for the Past Weeks

 TemperatureHumidityPressure
High86 °F (Sep 18, 1:00 PM)94% (Sep 18, 6:00 AM)30.15 "Hg (Sep 18, 6:00 AM)
Low63 °F (Sep 21, 7:00 AM)27% (Sep 20, 12:00 PM)29.89 "Hg (Sep 25, 5:00 PM)
Average77 °F65%30.01 "Hg
* Reported Sep 15 1:00 PM — Sep 30 1:00 PM, Mwanza, Weather by CustomWeather, © 2016

Note: Actual official high and low records may vary slightly from our data, if they occured in-between our weather recording intervals... More about our weather records

Advertising

Mwanza Weather History for the Previous 24 Hours

Scroll right to see more
 ConditionsComfort  
Time TempWeatherWind HumidityBarometerVisibility
1:00 PM
Fri, Sep 30
84 °FPassing clouds.15 mph48%30.01 "HgN/A
12:00 PM81 °FPassing clouds.12 mph58%30.01 "HgN/A
11:00 AM81 °FPassing clouds.12 mph58%30.04 "HgN/A
10:00 AM81 °FPassing clouds.No wind54%30.04 "HgN/A
9:00 AM77 °FPassing clouds.No wind61%30.07 "HgN/A
8:00 AM72 °FPassing clouds.7 mph78%30.04 "HgN/A
7:00 AM68 °FScattered clouds.3 mph94%30.01 "HgN/A
11:00 PM
Thu, Sep 29
73 °FPassing clouds.No wind78%30.04 "HgN/A
10:00 PM75 °FPassing clouds.No wind74%30.01 "HgN/A
9:00 PM75 °FPassing clouds.No wind74%30.01 "HgN/A
8:00 PM75 °FPassing clouds.9 mph69%29.98 "HgN/A
6:00 PM79 °FPartly sunny.12 mph65%29.95 "HgN/A
5:00 PM77 °FPartly sunny.12 mph69%29.98 "HgN/A
4:00 PM79 °FScattered clouds.15 mph61%29.98 "HgN/A
3:00 PM81 °FScattered clouds.16 mph62%30.01 "HgN/A
2:00 PM81 °FPassing clouds.14 mph54%30.04 "HgN/A
Weather by CustomWeather, © 2016

See weather overviewHow to use our weather pages